Location: Contre
(49.7477°N, 2.0963°E)
Time: 19:46:36
(UTC+00:00)

Meteor 2-12 Rocket - Pass Details

Date: 03 February 2023
Orbit: 935 x 958 km, 82.5° (Epoch: 26 March)

Event Time Altitude Azimuth Distance (km) Brightness Sun altitude
Rises 18:16:27 0° 350° (N) 3,625 7.5 -14.2°
Reaches altitude 10° 18:18:57 10° 352° (N) 2,672 6.8 -14.6°
Maximum altitude 18:25:05 80° 80° (E) 958 4.3 -15.6°
Drops below altitude 10° 18:31:07 10° 167° (SSE) 2,642 6.7 -16.6°
Sets 18:33:35 0° 169° (S) 3,581 7.4 -17.0°
